When you browse on this site, cookies collect data to enhance your experience and personalize the content and advertising you see.
Visit our Privacy Policy to learn more. By continuing to use the site, you agree to this use of cookies and data.
EN

Hourly Weather Postupel'

Today, 15 August, Saturday

Time Temperature Precipitation Wind Pressure Humidity
00:00 +14°C° 0 mm 3 mps 749 mmHg 78%
01:00 +14°C° 0 mm 3 mps 749 mmHg 79%
02:00 +14°C° 0 mm 3 mps 749 mmHg 81%
03:00 +13°C° 0 mm 3 mps 749 mmHg 81%
04:00 +13°C° 0 mm 3 mps 749 mmHg 82%
05:00 +14°C° 0 mm 2 mps 749 mmHg 83%
06:00 +14°C° 0 mm 3 mps 749 mmHg 79%
07:00 +16°C° 0 mm 3 mps 749 mmHg 75%
08:00 +18°C° 0 mm 3 mps 750 mmHg 71%
09:00 +19°C° 0 mm 3 mps 750 mmHg 65%
10:00 +21°C° 0 mm 3 mps 750 mmHg 59%
11:00 +22°C° 0 mm 3 mps 750 mmHg 54%
12:00 +24°C° 0 mm 3 mps 750 mmHg 52%
13:00 +24°C° 0 mm 3 mps 750 mmHg 50%
14:00 +25°C° 0 mm 3 mps 750 mmHg 48%
15:00 +25°C° 0 mm 3 mps 750 mmHg 49%
16:00 +25°C° 0 mm 3 mps 749 mmHg 51%
17:00 +24°C° 0 mm 3 mps 749 mmHg 52%
18:00 +21°C° 0 mm 2 mps 749 mmHg 59%
19:00 +20°C° 0 mm 2 mps 749 mmHg 65%
20:00 +19°C° 0 mm 1 mps 749 mmHg 72%
21:00 +18°C° 0 mm 1 mps 749 mmHg 75%
22:00 +16°C° 0 mm 2 mps 750 mmHg 78%
23:00 +15°C° 0 mm 2 mps 750 mmHg 81%

Tomorrow, 16 August, Sunday

Time Temperature Precipitation Wind Pressure Humidity
00:00 +15°C° 0 mm 1 mps 750 mmHg 82%
01:00 +15°C° 0 mm 1 mps 750 mmHg 83%
02:00 +14°C° 0 mm 1 mps 750 mmHg 84%
03:00 +14°C° 0 mm 1 mps 750 mmHg 84%
04:00 +14°C° 0 mm 1 mps 749 mmHg 84%
05:00 +13°C° 0 mm 1 mps 749 mmHg 83%
06:00 +15°C° 0 mm 1 mps 750 mmHg 78%
07:00 +17°C° 0 mm 2 mps 750 mmHg 72%
08:00 +18°C° 0 mm 2 mps 750 mmHg 66%
09:00 +20°C° 0 mm 2 mps 750 mmHg 60%
10:00 +23°C° 0 mm 2 mps 750 mmHg 55%
11:00 +24°C° 0 mm 3 mps 750 mmHg 49%
12:00 +25°C° 0 mm 3 mps 750 mmHg 48%
13:00 +26°C° 0 mm 3 mps 750 mmHg 46%
14:00 +26°C° 0 mm 3 mps 750 mmHg 44%
15:00 +26°C° 0 mm 3 mps 750 mmHg 45%
16:00 +26°C° 0 mm 2 mps 749 mmHg 46%
17:00 +26°C° 0 mm 2 mps 749 mmHg 48%
18:00 +24°C° 0 mm 2 mps 749 mmHg 54%
19:00 +22°C° 0 mm 1 mps 749 mmHg 60%
20:00 +20°C° 0 mm 1 mps 749 mmHg 67%
21:00 +19°C° 0 mm 1 mps 749 mmHg 68%
22:00 +18°C° 0 mm 1 mps 749 mmHg 69%
23:00 +18°C° 0 mm 1 mps 749 mmHg 70%

Day after tomorrow, 17 August, Monday

Time Temperature Precipitation Wind Pressure Humidity
00:00 +16°C° 0 mm 2 mps 749 mmHg 71%
01:00 +16°C° 0 mm 2 mps 749 mmHg 71%
02:00 +16°C° 0 mm 2 mps 748 mmHg 71%
03:00 +15°C° 0 mm 2 mps 748 mmHg 71%
04:00 +15°C° 0 mm 2 mps 748 mmHg 72%
05:00 +15°C° 0 mm 2 mps 748 mmHg 73%
06:00 +16°C° 0 mm 2 mps 748 mmHg 70%
07:00 +18°C° 0 mm 3 mps 748 mmHg 66%
08:00 +19°C° 0 mm 3 mps 748 mmHg 63%
09:00 +21°C° 0 mm 3 mps 748 mmHg 59%
10:00 +23°C° 0 mm 4 mps 748 mmHg 54%
11:00 +26°C° 0 mm 4 mps 747 mmHg 49%
12:00 +27°C° 0 mm 4 mps 747 mmHg 48%
13:00 +28°C° 0 mm 4 mps 747 mmHg 47%
14:00 +28°C° 0 mm 5 mps 746 mmHg 46%
15:00 +28°C° 0 mm 4 mps 746 mmHg 49%
16:00 +28°C° 0 mm 4 mps 746 mmHg 53%
17:00 +28°C° 0 mm 4 mps 745 mmHg 56%
18:00 +26°C° 0.2 mm 3 mps 745 mmHg 64%
19:00 +24°C° 0.2 mm 3 mps 745 mmHg 72%
20:00 +21°C° 0.2 mm 2 mps 745 mmHg 80%
21:00 +20°C° 0 mm 3 mps 744 mmHg 83%
22:00 +20°C° 0 mm 3 mps 744 mmHg 87%
23:00 +19°C° 0 mm 3 mps 744 mmHg 90%

18 August, Tuesday

Time Temperature Precipitation Wind Pressure Humidity
00:00 +19°C° 0.3 mm 3 mps 744 mmHg 91%
01:00 +19°C° 0.3 mm 3 mps 744 mmHg 92%
02:00 +19°C° 0.3 mm 3 mps 744 mmHg 93%
03:00 +19°C° 0.5 mm 3 mps 743 mmHg 94%
04:00 +19°C° 0.5 mm 3 mps 743 mmHg 94%
05:00 +19°C° 0.5 mm 3 mps 742 mmHg 94%
06:00 +20°C° 0.1 mm 3 mps 742 mmHg 91%
07:00 +21°C° 0.1 mm 3 mps 742 mmHg 88%
08:00 +21°C° 0.1 mm 3 mps 742 mmHg 86%
09:00 +24°C° 0 mm 3 mps 742 mmHg 80%
10:00 +25°C° 0 mm 3 mps 742 mmHg 74%
11:00 +27°C° 0 mm 3 mps 742 mmHg 68%
12:00 +28°C° 0.2 mm 3 mps 742 mmHg 64%
13:00 +29°C° 0.2 mm 3 mps 741 mmHg 60%
14:00 +30°C° 0.2 mm 4 mps 741 mmHg 56%
15:00 +28°C° 1.8 mm 3 mps 741 mmHg 65%
16:00 +26°C° 1.8 mm 2 mps 741 mmHg 73%
17:00 +24°C° 1.8 mm 2 mps 741 mmHg 81%
18:00 +23°C° 0.2 mm 2 mps 741 mmHg 83%
19:00 +23°C° 0.2 mm 1 mps 741 mmHg 85%
20:00 +22°C° 0.2 mm 1 mps 741 mmHg 87%
21:00 +22°C° 0.2 mm 1 mps 741 mmHg 88%
22:00 +21°C° 0.2 mm 1 mps 741 mmHg 89%
23:00 +21°C° 0.2 mm 1 mps 740 mmHg 90%

19 August, Wednesday

Time Temperature Precipitation Wind Pressure Humidity
00:00 +20°C° 0.2 mm 2 mps 740 mmHg 91%
01:00 +19°C° 0.2 mm 2 mps 740 mmHg 93%
02:00 +19°C° 0.2 mm 2 mps 740 mmHg 94%
03:00 +18°C° 0 mm 2 mps 740 mmHg 95%
04:00 +18°C° 0 mm 2 mps 740 mmHg 96%
05:00 +18°C° 0 mm 3 mps 740 mmHg 96%
06:00 +18°C° 0 mm 3 mps 740 mmHg 94%
07:00 +19°C° 0 mm 3 mps 740 mmHg 91%
08:00 +20°C° 0 mm 3 mps 740 mmHg 88%
09:00 +21°C° 0 mm 4 mps 740 mmHg 84%
10:00 +22°C° 0 mm 4 mps 740 mmHg 80%
11:00 +23°C° 0 mm 4 mps 741 mmHg 76%
12:00 +23°C° 0.7 mm 4 mps 740 mmHg 73%
13:00 +25°C° 0.7 mm 4 mps 740 mmHg 70%
14:00 +26°C° 0.7 mm 5 mps 740 mmHg 67%
15:00 +26°C° 0.3 mm 4 mps 740 mmHg 67%
16:00 +26°C° 0.3 mm 4 mps 740 mmHg 66%
17:00 +26°C° 0.3 mm 4 mps 740 mmHg 66%
18:00 +25°C° 0.1 mm 4 mps 740 mmHg 71%
19:00 +22°C° 0.1 mm 3 mps 740 mmHg 77%
20:00 +21°C° 0.1 mm 3 mps 740 mmHg 82%
21:00 +20°C° 0.1 mm 3 mps 740 mmHg 85%
22:00 +19°C° 0.1 mm 3 mps 740 mmHg 87%
23:00 +18°C° 0.1 mm 3 mps 740 mmHg 90%

20 August, Thursday

Time Temperature Precipitation Wind Pressure Humidity
00:00 +18°C° 0 mm 3 mps 740 mmHg 91%
01:00 +18°C° 0 mm 3 mps 740 mmHg 93%
02:00 +17°C° 0 mm 2 mps 740 mmHg 94%
03:00 +17°C° 0 mm 2 mps 740 mmHg 95%
04:00 +17°C° 0 mm 2 mps 740 mmHg 95%
05:00 +17°C° 0 mm 3 mps 741 mmHg 95%
06:00 +18°C° 0 mm 3 mps 741 mmHg 91%
07:00 +19°C° 0 mm 3 mps 741 mmHg 87%
08:00 +20°C° 0 mm 3 mps 741 mmHg 82%
09:00 +21°C° 0 mm 3 mps 742 mmHg 75%
10:00 +24°C° 0 mm 3 mps 742 mmHg 68%
11:00 +25°C° 0 mm 3 mps 743 mmHg 61%
12:00 +26°C° 0 mm 3 mps 743 mmHg 58%
13:00 +27°C° 0 mm 3 mps 743 mmHg 54%
14:00 +27°C° 0 mm 2 mps 743 mmHg 51%
15:00 +27°C° 0.4 mm 3 mps 743 mmHg 56%
16:00 +26°C° 0.4 mm 3 mps 743 mmHg 61%
17:00 +25°C° 0.4 mm 3 mps 743 mmHg 66%
18:00 +24°C° 0.2 mm 3 mps 743 mmHg 73%
19:00 +21°C° 0.2 mm 3 mps 744 mmHg 79%
20:00 +20°C° 0.2 mm 2 mps 744 mmHg 85%
21:00 +19°C° 0 mm 2 mps 744 mmHg 87%
22:00 +19°C° 0 mm 3 mps 745 mmHg 88%
23:00 +18°C° 0 mm 3 mps 745 mmHg 90%
Show more